Back to catalog

STARLINK-4427

AliveCommunicationsSSO
NORAD 53210·PAYLOAD·🇺🇸 United States

Launched Jul 22, 2022 from Vandenberg Space Force Base

Loading…

Next Passes (next 24 hours)

TLE

FreshSource: CelesTrak SupGP

Epoch: Sep 15, 2026, 01:23 UTC

1 53210C 22084X   26258.05812500  .00047334  00000+0  14693-2 0  2584
2 53210  97.2832 312.9428 0001273  86.0145 345.6171 15.33417740    13

Track STARLINK-4427 in real time with AllMySat

Download on the App Store